Location: Newark
(51.3318°N, 0.0053°E)
Time: 00:14:01
(UTC+00:00)

Envisat - Pass Details

Date: 30 January 2022
Orbit: 764 x 765 km, 98.2° (Epoch: 22 May)

Event Time Altitude Azimuth Distance (km) Brightness Sun altitude
Rises 03:27:56 0° 28° (NNE) 3,243 6.8 -39.1°
Reaches altitude 10° 03:31:21 10° 52° (NE) 2,311 6.1 -38.6°
Maximum altitude 03:34:09 15° 86° (E) 1,999 5.7 -38.2°
Drops below altitude 10° 03:36:55 10° 119° (ESE) 2,302 5.8 -37.8°
Sets 03:40:18 0° 143° (SE) 3,222 6.4 -37.3°
